Regional Weather Roundup
Issued by NWS

Home | Current Version | Previous Version | Text Only | Print | Product List | Glossary Off
Versions: 1 2 3 4 5 6 7 8 9 10 11 12 13 14 15 16 17 18 19 20 21 22 23 24 25 26 27 28 29 30 31 32 33 34 35 36 37 38 39 40 41 42 43 44 45 46 47 48 49 50

000
ASUS43 KLOT 250400
RWRIL

ILLINOIS REGIONAL WEATHER ROUNDUP
NATIONAL WEATHER SERVICE CHICAGO/ROMEOVILLE IL
1100 PM CDT FRI OCT 24 2014

NOTE: "FAIR" INDICATES FEW OR NO CLOUDS BELOW 12,000 FEET WITH NO
SIGNIFICANT WEATHER AND/OR OBSTRUCTIONS TO VISIBILITY.

* THESE STATIONS ARE NOT UNDER NWS QUALITY CONTROL. THEY ALSO MAY NOT
  REPORT WEATHER SUCH AS PRECIPITATION OR FOG.

ILZ001-002-007-009-015-016-024-250500-
NORTHWEST ILLINOIS

CITY           SKY/WX    TMP DP  RH WIND       PRES   REMARKS
MOLINE         MOCLDY    59  56  89 CALM      29.94F FOG
STERLING*      MOCLDY    57  48  72 SW3       29.95R
$$

ILZ003-004-008-010-011-017-018-250500-
NORTH CENTRAL ILLINOIS

CITY           SKY/WX    TMP DP  RH WIND       PRES   REMARKS
ROCKFORD       CLOUDY    59  48  67 SW6       29.96R
$$

ILZ005-006-012>014-019>023-250500-
NORTHEAST ILLINOIS

CITY           SKY/WX    TMP DP  RH WIND       PRES   REMARKS
CHICAGO-OHARE  CLOUDY    61  47  59 SW8       29.93F
CHICAGO-MIDWAY CLOUDY    63  49  60 SW8       29.94S
AURORA         MOCLDY    57  48  72 SW7       29.94F
WAUKEGAN       CLOUDY    54  52  93 CALM      29.92F FOG
DUPAGE AIRPORT CLOUDY    59  49  69 SW9       29.93F
WHEELING       CLOUDY    63  45  51 SW3       29.95F
NORTHERLY ISL    N/A     62  47  57 SW8         N/A
$$

LMZ740>746-250500-
SOUTHERN LAKE MICHIGAN

STATION/POSITION SKY/WX   TEMP    WIND        PRES    VSBY  WAVE
                          AIR SEA DIR/SP/G                  HT/PER
                          (F)     (DEG/KT/KT) (MB)    (MI)  (FT/S)
SOUTHERN BUOY              56 54  170/  8/ 10 1013.7F         0
WAUKEGAN HARBOR            58     190/  5/  8   N/A
HARRISON CRIB              61     190/ 10/ 11   N/A
BURNHAM HARBOR             62     240/  4/  9   N/A
CALUMET HARBOR             61     220/  6/  9 1012.9S
MICHIGAN CITY              57     130/ 11/ 12   N/A
$$

ILZ025>027-034>036-040-047-049-050-058-095>099-250500-
WEST-CENTRAL ILLINOIS

CITY           SKY/WX    TMP DP  RH WIND       PRES   REMARKS
QUINCY         PTCLDY    62  57  83 SW8       29.96F
$$

ILZ028>032-037-038-041>044-048-051>054-059>061-250500-
CENTRAL ILLINOIS

CITY           SKY/WX    TMP DP  RH WIND       PRES   REMARKS
DECATUR        CLOUDY    60  54  80 S8        30.00S
PEORIA         CLOUDY    62  51  67 S8        29.96F
SPRINGFIELD    CLOUDY    62  50  64 S5        29.99R
TAYLORVILLE    NOT AVBL
$$

ILZ033-039-045-046-055>057-062-063-250500-
EAST-CENTRAL ILLINOIS

CITY           SKY/WX    TMP DP  RH WIND       PRES   REMARKS
CHAMPAIGN      CLOUDY    56  54  93 S8        30.01F
MATTOON        CLOUDY    59  52  77 S8        30.01R
$$

ILZ079-100>102-250500-
SOUTHWEST ILLINOIS

CITY           SKY/WX    TMP DP  RH WIND       PRES   REMARKS
BELLEVILLE     MOCLDY    60  51  74 SW3       30.00S
CAHOKIA*       MOCLDY    61  51  70 S6        30.00S
$$

ILZ064>066-069>071-074>076-080>082-084>086-088>090-092>094-250500-
SOUTH-CENTRAL ILLINOIS

CITY           SKY/WX    TMP DP  RH WIND       PRES   REMARKS
CARBONDALE     PTCLDY    54  50  86 S5        30.04F
MT. VERNON     PTCLDY    52  46  82 CALM      30.04F
$$

ILZ067-068-072-073-078-083-087-091-250500-
SOUTHEAST ILLINOIS

CITY           SKY/WX    TMP DP  RH WIND       PRES   REMARKS
LAWRENCEVILLE  PTCLDY    50  49  96 S6        30.04S
$$

ABBREVIATIONS USED IN REMARKS
   TC - TEMPERATURE IN CELSIUS
  WCI - WIND CHILL INDEX
   HX - HEAT INDEX
  VSB - VISIBILITY
$$




USA.gov is the U.S. government's official web portal to all federal, state and local government web resources and services.